Other Public Products
Issued by NWS Grand Forks, ND

Home | Current Version | Previous Version | Text Only | Print | Product List | Glossary On
Versions: 1 2 3 4 5 6 7 8 9 10 11 12 13 14 15 16 17 18 19 20 21 22 23 24 25 26 27 28 29 30 31 32 33 34 35 36 37 38 39 40 41 42 43 44 45 46 47 48 49 50
000
FPUS83 KFGF 210631
OPUFGF
PRAIRIE TO PINES WEATHER ROUNDUP
NATIONAL WEATHER SERVICE EASTERN NORTH DAKOTA/GRAND FORKS ND
100 AM CDT MON AUG 21 2017

 **SATELLITE DATA USED TO AUGMENT SKY COVER AT AUTOMATED STATIONS**
 *****  WEATHER ACROSS EASTERN NORTH DAKOTA  *****

CITY           SKY/WX    TMP DP  RH WIND       PRES   REMARKS
GRAND FORKS    FAIR      54  51  90 CALM      30.02S
6HR MIN TEMP:  54; 6HR MAX TEMP:  77;

GRAND FORKS AF FAIR      51  48  90 SW3       30.02S
GRAND CITY NWS NOT AVBL
BUXTON           N/A     43  49 100 CALM        N/A
DEVILS LAKE    FAIR      63  49  60 S6        30.04S
6HR MIN TEMP:  57; 6HR MAX TEMP:  73;

FARGO          FAIR      62  55  77 CALM      30.03S
6HR MIN TEMP:  61; 6HR MAX TEMP:  75;

WAHPETON ARPT  FAIR      59  55  88 CALM      30.04S
$$

 *****  WEATHER ACROSS CENTRAL AND WESTERN NORTH DAKOTA  *****

CITY           SKY/WX    TMP DP  RH WIND       PRES   REMARKS
JAMESTOWN      MOCLDY    62  53  72 SW5       30.04S
6HR MIN TEMP:  60; 6HR MAX TEMP:  70;

BISMARCK       CLOUDY    58  54  86 E5        30.04F
6HR MIN TEMP:  57; 6HR MAX TEMP:  70; 6HR PCP:  0.01;

MINOT          FAIR      65  49  56 S12       29.99F
6HR MIN TEMP:  63; 6HR MAX TEMP:  79;

MINOT AFB      MOCLDY    62  49  64 S8        29.97F
6HR MIN TEMP:  57; 6HR MAX TEMP:  77;

GARRISON         N/A     61  52  72 S9        30.01F
6HR MIN TEMP:  59; 6HR MAX TEMP:  71;

WILLISTON      FAIR      64  49  57 S7        29.96F
6HR MIN TEMP:  64; 6HR MAX TEMP:  77;

DICKINSON      MOCLDY    59  47  64 SE16      29.96F
6HR MIN TEMP:  56; 6HR MAX TEMP:  69;

HETTINGER      FAIR      56  47  71 E9        30.02S
6HR MIN TEMP:  56; 6HR MAX TEMP:  70;

$$

 *****  OTHER OBSERVATIONS NORTHEAST NORTH DAKOTA  *****

CITY           SKY/WX    TMP DP  RH WIND       PRES   REMARKS
WALHALLA       FAIR      55  55 100 SW3       30.01F
LANGDON        MOCLDY    52  50  93 CALM      30.03F
CAVALIER       FAIR      54  46  76 CALM      30.01S
GRAFTON        FAIR      55  50  82 SW3       30.03S
CANDO          MOCLDY    50  50 100 SE6       30.04F
FORT TOTTEN      N/A     60  45  57 SE3       29.95S
ROLLA          MOCLDY    52  48  87 S7        30.01F
RUGBY          FAIR      57  52  82 S7        30.00F
 ***** THE ABOVE OBSERVATIONS ARE NON NWS ARE NOT QUALITY
        CONTROLLED AND MAY MIS-REPORT RAIN FOR SNOW...
$$

 *****  OTHER OBSERVATIONS SOUTHEAST NORTH DAKOTA *****

CITY           SKY/WX    TMP DP  RH WIND       PRES   REMARKS
COOPERSTOWN    FAIR      59  55  88 CALM      30.05F
VALLEY CITY    LGT RAIN  59  59 100 CALM      30.06R
OAKES          NOT AVBL
GWINNER        CLEAR     59  57  94 CALM      30.04S
SHEYENNE NWR     N/A     61  57  87 W5        29.95S
BUFFALO          N/A     61  50  68 SE3         N/A
WYNDMERE       NOT AVBL
 ***** THE ABOVE OBSERVATIONS ARE NON NWS ARE NOT QUALITY
       CONTROLLED AND MAY MIS-REPORT RAIN FOR SNOW...
$$

  *****  WEATHER ACROSS NORTHERN MINNESOTA  *****

CITY           SKY/WX    TMP DP  RH WIND       PRES   REMARKS
FLAG ISLAND    FAIR      64  50  59 SW5       29.99S HAZE
WARROAD        FAIR      54  48  82 SW6       30.03S
ROSEAU         FAIR      54  46  76 SW5       30.03R
HALLOCK        FAIR      48  45  87 S3        30.02R
THF RVR FALLS  FAIR      52  47  83 CALM      30.05
6HR MIN TEMP:  52; 6HR MAX TEMP:  74;

HALSTAD          N/A     55  52  89 S3          N/A
FOSSTON        FAIR      52  46  82 CALM      30.05F
BAUDETTE       FAIR      51  46  83 SW3       30.03R
6HR MIN TEMP:  50; 6HR MAX TEMP:  73;

WASKISH        FAIR      50  48  93 CALM      30.05R
CROOKSTON      FAIR      55  48  76 SE6       30.04S
$$
  *****  WEATHER ACROSS CENTRAL AND WEST MINNESOTA  *****

CITY           SKY/WX    TMP DP  RH WIND       PRES   REMARKS
BEMIDJI        FAIR      48  46  93 W5        30.06R
PARK RAPIDS    FAIR      56  52  86 NW5       30.06R
6HR MIN TEMP:  56; 6HR MAX TEMP:  72;

WADENA         FAIR      54  54 100 CALM      30.05S
DETROIT LAKES  FAIR      59  55  88 CALM      30.07S
MOORHEAD       FAIR      57  55  94 E3        30.04F
FERGUS FALLS   LGT RAIN  61  54  77 E5        30.04F
ELBOW LAKE     FAIR      62  57  83 NE5       30.05S
MORRIS MN      FAIR      57  57 100 CALM      30.03F
STAPLES        FAIR      54  52  94 CALM      30.06R
WHEATON        FAIR      59  55  88 CALM      30.05F
$$
  *****  WEATHER ELSEWHERE ACROSS MINNESOTA  *****

CITY           SKY/WX    TMP DP  RH WIND       PRES   REMARKS
DULUTH         FAIR      58  54  86 NW3       30.05R
6HR MIN TEMP:  57; 6HR MAX TEMP:  71;

INTRNTL FALLS  FAIR      50  47  89 CALM      30.03R
6HR MIN TEMP:  47; 6HR MAX TEMP:  71;

ELY            FAIR      50  50 100 CALM      30.04R
CLOQUET        FAIR      55  50  82 NW3       30.05S
BRAINERD       FAIR      53  53 100 CALM      30.05R
6HR MIN TEMP:  55; 6HR MAX TEMP:  72;

HIBBING        FAIR      48  47  96 CALM      30.04R
6HR MIN TEMP:  48; 6HR MAX TEMP:  69;

ALEXANDRIA     NOT AVBL
SAINT CLOUD    FAIR      58  58 100 CALM      30.06R
6HR MIN TEMP:  58; 6HR MAX TEMP:  75;

MINNEAPOLIS    FAIR      70  63  78 N5        30.03S
6HR MIN TEMP:  70; 6HR MAX TEMP:  81;

$$

  *****  WEATHER ACROSS SOUTH DAKOTA  *****

CITY           SKY/WX    TMP DP  RH WIND       PRES   REMARKS
SIOUX FALLS    FAIR      66  63  90 NE5       29.98F
6HR MIN TEMP:  66; 6HR MAX TEMP:  76;

BROOKINGS      NOT AVBL
WATERTOWN      FAIR      58  55  90 NE3       30.04F
6HR MIN TEMP:  56; 6HR MAX TEMP:  70;

HURON          FAIR      60  56  86 CALM      30.00F
6HR MIN TEMP:  58; 6HR MAX TEMP:  73; 6HR PCP: TRACE;

SISSETON         N/A     57  56  96 CALM      30.04R
ABERDEEN       FAIR      54  53  97 E8        30.02F
6HR MIN TEMP:  54; 6HR MAX TEMP:  70;

MITCHELL       MOCLDY    64  59  83 CALM      30.00F
PIERRE         FAIR      60  53  77 E9        30.00S
6HR MIN TEMP:  59; 6HR MAX TEMP:  75;

MOBRIDGE       FAIR      60  47  61 E10       29.98F
RAPID CITY     FAIR      63  54  72 SE6       30.01S
6HR MIN TEMP:  63; 6HR MAX TEMP:  81;

$$

  *****  SOME WEATHER IN NEARBY STATES *****

CITY           SKY/WX    TMP DP  RH WIND       PRES   REMARKS
GLASGOW MT     FAIR      64  31  28 N6        29.97R
6HR MIN TEMP:  64; 6HR MAX TEMP:  81;

GREAT FALLS MT CLOUDY    64  29  26 S5        30.08R
6HR MIN TEMP:  63; 6HR MAX TEMP:  80;

CHEYENNE WY    FAIR      66  46  48 S7        30.18S
6HR MIN TEMP:  62; 6HR MAX TEMP:  80;

SCOTTSBLUFF NE FAIR      68  63  84 E7        30.03R
6HR MIN TEMP:  67; 6HR MAX TEMP:  86;

OMAHA NE       FAIR      74  66  76 S9        29.93F
6HR MIN TEMP:  74; 6HR MAX TEMP:  83;

DES MOINES IA  CLOUDY    71  65  81 SE7       29.98F THUNDER
6HR MIN TEMP:  71; 6HR MAX TEMP:  80;

DAVENPORT IA   FAIR      63  63 100 CALM      30.03F FOG
6HR MIN TEMP:  64; 6HR MAX TEMP:  77;

CHICAGO IL     LGT RAIN  75  66  73 S10       30.05S
6HR MIN TEMP:  75; 6HR MAX TEMP:  82; 6HR PCP: TRACE;

EAU CLAIRE WI  FAIR      68  66  93 N5        30.01R
6HR MIN TEMP:  68; 6HR MAX TEMP:  80;

LA CROSSE WI   FAIR      73  68  84 CALM      30.02R
6HR MIN TEMP:  71; 6HR MAX TEMP:  86; 6HR PCP: TRACE;

$$

  *****  SOME NATIONAL WEATHER *****

CITY           SKY/WX    TMP DP  RH WIND       PRES   REMARKS
LA GUARDIA NY  FAIR      78  61  55 SW3       30.16R
6HR MIN TEMP:  77; 6HR MAX TEMP:  80;

RALEIGH NC     FAIR      75  71  87 CALM      30.19S



USA.gov is the U.S. government's official web portal to all federal, state and local government web resources and services.